This is the latest recevied weather packets stored in our database for station/object KG4AGD. If no packets are shown the sender has not sent any weather packets the latest 1 day(s).
| Time | Temp. | Humidity | Pressure | Rain* | Wind** | Luminosity | Snow |
|---|---|---|---|---|---|---|---|
| 1778034482 | 19.44° C | 77% | 1017.6 hPa | 0 mm | 3.13 m/s, 156° | - | - |
| 1778034179 | 19.44° C | 77% | 1017.6 hPa | 0 mm | 2.68 m/s, 145° | - | - |
| 1778033877 | 19.44° C | 76% | 1017.6 hPa | 0 mm | 2.68 m/s, 174° | - | - |
| 1778033574 | 19.44° C | 75% | 1017.6 hPa | 0 mm | 2.68 m/s, 160° | - | - |
| 1778033270 | 20° C | 75% | 1017.6 hPa | 0 mm | 3.58 m/s, 154° | - | - |
| 1778032968 | 20° C | 74% | 1017.2 hPa | 0 mm | 4.92 m/s, 158° | - | - |
| 1778032666 | 20° C | 74% | 1017.2 hPa | 0 mm | 2.24 m/s, 169° | - | - |
| 1778032373 | 20° C | 73% | 1017.2 hPa | 0 mm | 1.79 m/s, 159° | - | - |
| 1778032061 | 20° C | 72% | 1017.2 hPa | 0 mm | 3.58 m/s, 166° | - | - |
| 1778031759 | 20.56° C | 71% | 1017.2 hPa | 0 mm | 4.92 m/s, 187° | - | - |
| 1778031456 | 20.56° C | 71% | 1017.2 hPa | 0 mm | 5.36 m/s, 121° | - | - |
| 1778031154 | 20.56° C | 70% | 1016.9 hPa | 0 mm | 6.26 m/s, 172° | - | - |
| 1778030851 | 20.56° C | 70% | 1016.9 hPa | 0 mm | 3.58 m/s, 156° | - | - |
| 1778030549 | 20.56° C | 69% | 1016.9 hPa | 0 mm | 2.24 m/s, 166° | - | - |
| 1778030247 | 21.11° C | 68% | 1016.9 hPa | 0 mm | 6.26 m/s, 165° | - | - |
| 1778029944 | 21.11° C | 68% | 1016.9 hPa | 0 mm | 3.58 m/s, 172° | - | - |
| 1778029642 | 21.11° C | 68% | 1016.5 hPa | 0 mm | 2.24 m/s, 146° | - | - |
| 1778029340 | 21.11° C | 67% | 1016.5 hPa | 0 mm | 3.13 m/s, 187° | - | - |
| 1778029037 | 21.11° C | 67% | 1016.5 hPa | 0 mm | 4.02 m/s, 143° | - | - |
| 1778028735 | 21.67° C | 66% | 1016.5 hPa | 0 mm | 2.68 m/s, 159° | - | - |
| 1778028432 | 21.67° C | 65% | 1016.2 hPa | 0 mm | 4.92 m/s, 172° | - | - |
| 1778028130 | 21.67° C | 65% | 1016.2 hPa | 0 mm | 2.68 m/s, 182° | - | - |
| 1778027827 | 21.67° C | 65% | 1016.2 hPa | 0 mm | 1.34 m/s, 175° | - | - |
| 1778027525 | 22.22° C | 64% | 1016.2 hPa | 0 mm | 3.13 m/s, 170° | - | - |
| 1778027223 | 22.22° C | 63% | 1016.2 hPa | 0 mm | 3.58 m/s, 145° | - | - |
* Rain since midnight (hover to see other rain measurements)
** Current wind speed in m/s (hover to see current wind gust speed)